Weather History for West Bend, WI

Change the Weather History Date:

Wednesday, November 16, 2011

  Actual Average Record
Temperature  
Mean Temperature 34 °F -  
Max Temperature 37 °F 44 °F 69 °F (1931)
Min Temperature 30 °F 28 °F -1 °F (1933)
Degree Days  
Heating Degree Days 32    
Moisture  
Dew Point 15 °F    
Average Humidity 48    
Maximum Humidity 64    
Minimum Humidity 33    
Precipitation  
Precipitation 0.00 in - - ()
Sea Level Pressure  
Sea Level Pressure 29.99 in    
Wind  
Wind Speed 13 mph (West)    
Max Wind Speed 22 mph    
Max Gust Speed 30 mph    
Visibility 10 miles    
Events      
Averages and records for this station are not official NWS values.
T = Trace of Precipitation, MM = Missing Value Source: NWS Daily Summary

Daily Weather History Graph

Daily Weather History Graph

Search for Another Location

Airport:

Trip Planner

Search our weather history database for the weather conditions in past years. The results will help you decide how hot, cold, wet, or windy it might be!

Date:

Astronomy

Nov. 16, 2011 Rise Set
Actual Time 6:46 AM CST 4:27 PM CST
Civil Twilight 6:16 AM CST 4:57 PM CST
Nautical Twilight 5:41 AM CST 5:32 PM CST
Astronomical Twilight 5:07 AM CST 6:06 PM CST
Moon 9:42 PM CST (11/16) 11:21 AM CST (11/16)
Length of Visible Light 10h 41m
Length of Day
9h 40m
Waning Gibbous, 70% of the Moon is Illuminated
Nov 16
Waning Gibbous
Nov 18
Last Quarter
Nov 25
New
Dec 2
First Quarter
Dec 10
Full

Hourly Weather History & Observations

Time (CST) Temp. Windchill Dew Point Humidity Pressure Visibility Wind Dir Wind Speed Gust Speed Precip Events Conditions
12:35 AM 37.4 °F 27.8 °F 21.2 °F 52% 29.84 in 10.0 mi West 17.3 mph 20.7 mph N/A   Clear
12:55 AM 37.4 °F 28.5 °F 19.4 °F 48% 29.85 in 10.0 mi West 15.0 mph 21.9 mph N/A   Clear
1:35 AM 35.6 °F 28.6 °F 19.4 °F 52% 29.86 in 10.0 mi West 9.2 mph - N/A   Clear
1:55 AM 35.6 °F 28.0 °F 19.4 °F 52% 29.85 in 10.0 mi West 10.4 mph 18.4 mph N/A   Clear
2:15 AM 33.8 °F 24.3 °F 19.4 °F 56% 29.86 in 10.0 mi West 13.8 mph 20.7 mph N/A   Clear
2:35 AM 33.8 °F 25.8 °F 17.6 °F 52% 29.86 in 10.0 mi West 10.4 mph 19.6 mph N/A   Clear
2:55 AM 33.8 °F 27.0 °F 19.4 °F 56% 29.87 in 10.0 mi West 8.1 mph - N/A   Clear
3:15 AM 33.8 °F 27.0 °F 19.4 °F 56% 29.87 in 10.0 mi West 8.1 mph - N/A   Clear
3:35 AM 32.0 °F 24.2 °F 19.4 °F 60% 29.88 in 10.0 mi West 9.2 mph - N/A   Clear
3:55 AM 32.0 °F 24.2 °F 19.4 °F 60% 29.88 in 10.0 mi West 9.2 mph - N/A   Clear
4:35 AM 32.0 °F 25.6 °F 19.4 °F 60% 29.89 in 10.0 mi West 6.9 mph - N/A   Clear
4:55 AM 32.0 °F 26.4 °F 19.4 °F 60% 29.89 in 10.0 mi West 5.8 mph - N/A   Clear
5:15 AM 32.0 °F 25.6 °F 19.4 °F 60% 29.90 in 10.0 mi West 6.9 mph - N/A   Clear
5:35 AM 32.0 °F 23.6 °F 19.4 °F 60% 29.90 in 10.0 mi WNW 10.4 mph - N/A   Clear
6:15 AM 32.0 °F 22.5 °F 19.4 °F 60% 29.92 in 10.0 mi WNW 12.7 mph 17.3 mph N/A   Clear
6:35 AM 30.2 °F 22.6 °F 19.4 °F 64% 29.94 in 10.0 mi West 8.1 mph - N/A   Clear
6:55 AM 30.2 °F 19.8 °F 19.4 °F 64% 29.95 in 10.0 mi West 13.8 mph 18.4 mph N/A   Clear
7:35 AM 30.2 °F 20.2 °F 19.4 °F 64% 29.97 in 10.0 mi West 12.7 mph 21.9 mph N/A   Clear
8:15 AM 32.0 °F 20.8 °F 17.6 °F 55% 29.98 in 10.0 mi West 17.3 mph 24.2 mph N/A   Clear
8:35 AM 32.0 °F 20.8 °F 17.6 °F 55% 29.99 in 10.0 mi West 17.3 mph 24.2 mph N/A   Clear
8:55 AM 32.0 °F 20.1 °F 17.6 °F 55% 29.99 in 10.0 mi West 19.6 mph 26.5 mph N/A   Clear
9:15 AM 32.0 °F 19.8 °F 17.6 °F 55% 30.00 in 10.0 mi WNW 20.7 mph 24.2 mph N/A   Clear
9:35 AM 32.0 °F 20.1 °F 17.6 °F 55% 30.00 in 10.0 mi West 19.6 mph 24.2 mph N/A   Clear
9:55 AM 32.0 °F 20.1 °F 17.6 °F 55% 30.01 in 10.0 mi West 19.6 mph 27.6 mph N/A   Clear
10:15 AM 32.0 °F 20.1 °F 15.8 °F 51% 30.01 in 10.0 mi West 19.6 mph 28.8 mph N/A   Clear
10:35 AM 32.0 °F 19.8 °F 15.8 °F 51% 30.02 in 10.0 mi West 20.7 mph 29.9 mph N/A   Scattered Clouds
10:55 AM 33.8 °F 23.2 °F 15.8 °F 48% 30.02 in 10.0 mi WNW 17.3 mph 27.6 mph N/A   Scattered Clouds
11:15 AM 33.8 °F 22.2 °F 14.0 °F 44% 30.01 in 10.0 mi West 20.7 mph 27.6 mph N/A   Clear
11:35 AM 33.8 °F 23.2 °F 14.0 °F 44% 30.01 in 10.0 mi West 17.3 mph 25.3 mph N/A   Clear
12:35 PM 35.6 °F 25.5 °F 12.2 °F 38% 30.01 in 10.0 mi West 17.3 mph 26.5 mph N/A   Clear
12:55 PM 35.6 °F 26.2 °F 12.2 °F 38% 30.01 in 10.0 mi West 15.0 mph 27.6 mph N/A   Clear
1:15 PM 35.6 °F 25.2 °F 10.4 °F 35% 30.01 in 10.0 mi West 18.4 mph 28.8 mph N/A   Clear
1:35 PM 37.4 °F 26.6 °F 10.4 °F 33% 30.01 in 10.0 mi West 21.9 mph 29.9 mph N/A   Clear
2:15 PM 37.4 °F 29.8 °F 10.4 °F 33% 30.01 in 10.0 mi WNW 11.5 mph 26.5 mph N/A   Clear
2:35 PM 35.6 °F 24.8 °F 8.6 °F 33% 30.02 in 10.0 mi WNW 19.6 mph 29.9 mph N/A   Clear
3:15 PM 35.6 °F 24.8 °F 8.6 °F 33% 30.03 in 10.0 mi WNW 19.6 mph 25.3 mph N/A   Clear
3:35 PM 35.6 °F 26.6 °F 10.4 °F 35% 30.03 in 10.0 mi West 13.8 mph 20.7 mph N/A   Clear
3:55 PM 35.6 °F 26.6 °F 10.4 °F 35% 30.04 in 10.0 mi West 13.8 mph 21.9 mph N/A   Clear
4:15 PM 33.8 °F 23.9 °F 8.6 °F 35% 30.05 in 10.0 mi West 15.0 mph 19.6 mph N/A   Clear
4:35 PM 33.8 °F 26.4 °F 10.4 °F 38% 30.05 in 10.0 mi West 9.2 mph 12.7 mph N/A   Clear
5:15 PM 33.8 °F 27.0 °F 10.4 °F 38% 30.06 in 10.0 mi West 8.1 mph - N/A   Clear
5:35 PM 32.0 °F 24.8 °F 12.2 °F 44% 30.06 in 10.0 mi West 8.1 mph - N/A   Clear
5:55 PM 32.0 °F 25.6 °F 12.2 °F 44% 30.07 in 10.0 mi West 6.9 mph - N/A   Clear
6:15 PM 32.0 °F 24.8 °F 12.2 °F 44% 30.07 in 10.0 mi West 8.1 mph - N/A   Clear
6:35 PM 32.0 °F 27.5 °F 12.2 °F 44% 30.07 in 10.0 mi West 4.6 mph - N/A   Clear
6:55 PM 30.2 °F 24.3 °F 12.2 °F 47% 30.07 in 10.0 mi SW 5.8 mph - N/A   Clear
7:35 PM 32.0 °F 23.6 °F 12.2 °F 44% 30.06 in 10.0 mi WSW 10.4 mph - N/A   Clear
7:55 PM 32.0 °F 24.2 °F 12.2 °F 44% 30.06 in 10.0 mi WSW 9.2 mph - N/A   Clear
8:15 PM 32.0 °F 25.6 °F 12.2 °F 44% 30.05 in 10.0 mi SW 6.9 mph - N/A   Clear
8:55 PM 32.0 °F 23.6 °F 12.2 °F 44% 30.05 in 10.0 mi WSW 10.4 mph 17.3 mph N/A   Clear
9:15 PM 32.0 °F 23.0 °F 12.2 °F 44% 30.05 in 10.0 mi West 11.5 mph 17.3 mph N/A   Clear
9:35 PM 32.0 °F 23.6 °F 12.2 °F 44% 30.05 in 10.0 mi WSW 10.4 mph 17.3 mph N/A   Clear
9:55 PM 32.0 °F 24.2 °F 14.0 °F 48% 30.04 in 10.0 mi WSW 9.2 mph - N/A   Clear
10:15 PM 32.0 °F 24.2 °F 14.0 °F 48% 30.04 in 10.0 mi WSW 9.2 mph - N/A   Clear
10:35 PM 32.0 °F 23.6 °F 14.0 °F 48% 30.03 in 10.0 mi West 10.4 mph - N/A   Clear
10:55 PM 30.2 °F 21.9 °F 14.0 °F 51% 30.03 in 10.0 mi West 9.2 mph - N/A   Clear
11:15 PM 30.2 °F 23.4 °F 14.0 °F 51% 30.03 in 10.0 mi West 6.9 mph - N/A   Clear
11:35 PM 30.2 °F 22.6 °F 14.0 °F 51% 30.03 in 10.0 mi West 8.1 mph - N/A   Clear